Terminal Aerodrome Forecast
Issued by NWS

Home | Current Version | Previous Version | Text Only | Print | Product List | Glossary On
Versions: 1 2 3 4 5 6 7 8 9 10 11 12 13 14 15 16 17 18 19 20 21 22 23 24 25 26 27 28 29 30 31 32 33 34 35 36 37 38 39 40 41
000
FTAK31 PANC 252336
TAFAVD
TAF
PAVD 252336Z 2600/2624 VRB03KT 4SM -SHSN FEW003 BKN025
      TEMPO 2600/2604 1 1/2SM -SHSN BR FEW003 BKN015
     FM260400 VRB03KT P6SM VCSH FEW005 SCT045 BKN060
      AMD LTD TO CLD VIS AND WIND=

USA.gov is the U.S. government's official web portal to all federal, state and local government web resources and services.